Tracking 19817 objects as of 19-Aug-2019
HD Live streaming from Space Station
objects crossing your sky now

FENGYUN 1C DEB

Track FENGYUN 1C DEB now!
10-day predictions


NORAD ID: 30875
Int'l Code: 1999-025AXM
Perigee: 655.3 km
Apogee: 710.9 km
Inclination: 99.1 °
Period: 98.3 minutes
Semi major axis: 7054 km
RCS: 0.0106 m2 (small)
Launch date: May 10, 1999
Source: People's Republic of China (PRC)
Launch site: Taiyaun Space Center, China (TSC)

Note: This is SATELLITE DEBRIS
aabbcc
Your satellite tracking list
Your tracking list is empty




NASA's NSSDC Master Catalog

Two Line Element Set (TLE):
1 30875U 99025AXM 19230.88810828 +.00004550 +00000-0 +84354-3 0  9997
2 30875 099.1055 105.2931 0039428 285.0491 074.6347 14.65354232652054
Source of the keplerian elements: AFSPC